| time (UTC) | temp F | wind direction | speed MPH | gust MPH | rain 1hr in | rain 24hr in | rain mn in | humidity % | barometer mb |
| 20260504120122 | 53 | 180 | 0.0 | 0.0 | 0.00 | 0.00 | 0.00 | 89 | 1008.5 |
| 20260504110123 | 55 | 113 | 0.0 | 0.0 | 0.00 | 0.00 | 0.00 | 87 | 1008.5 |
| 20260504100122 | 55 | 113 | 0.0 | 0.0 | 0.00 | 0.00 | 0.00 | 85 | 1008.2 |
| 20260504090122 | 57 | 68 | 0.0 | 0.0 | 0.00 | 0.00 | 0.00 | 82 | 1008.1 |
| 20260504081122 | 58 | 270 | 0.0 | 0.0 | 0.00 | 0.00 | 0.00 | 79 | 1007.9 |
| 20260504080143 | 58 | 113 | 0.0 | 0.0 | 0.00 | 0.00 | 0.00 | 77 | 1007.8 |
| 20260504070122 | 62 | 45 | 0.0 | 0.0 | 0.00 | 0.00 | 0.00 | 69 | 1007.8 |
| 20260504060122 | 65 | 68 | 0.0 | 0.0 | 0.00 | 0.00 | 0.00 | 61 | 1007.6 |
| 20260504050122 | 63 | 158 | 0.0 | 0.0 | 0.00 | 0.00 | 0.00 | 66 | 1007.7 |
| 20260504045123 | 63 | 293 | 0.0 | 0.0 | 0.00 | 0.00 | 0.00 | 67 | 1007.7 |
| 20260504044122 | 64 | 113 | 0.0 | 0.0 | 0.00 | 0.00 | 0.00 | 67 | 1007.7 |
| 20260504043143 | 63 | 113 | 0.0 | 0.0 | 0.00 | 0.00 | 0.00 | 67 | 1007.5 |
| 20260504042122 | 64 | 90 | 0.0 | 0.0 | 0.00 | 0.00 | 0.00 | 66 | 1007.6 |
| 20260504041143 | 64 | 270 | 0.0 | 0.0 | 0.00 | 0.00 | 0.00 | 64 | 1007.6 |
| 20260504040122 | 65 | 68 | 0.0 | 0.0 | 0.00 | 0.00 | 0.00 | 64 | 1007.7 |
| 20260504035122 | 66 | 45 | 0.0 | 0.0 | 0.00 | 0.00 | 0.00 | 63 | 1007.7 |
| 20260504034143 | 67 | 338 | 0.0 | 0.0 | 0.00 | 0.00 | 0.00 | 61 | 1007.6 |
| 20260504033122 | 67 | 293 | 0.0 | 0.0 | 0.00 | 0.00 | 0.00 | 60 | 1007.7 |
| 20260504032122 | 68 | 315 | 0.0 | 0.0 | 0.00 | 0.00 | 0.00 | 58 | 1007.7 |
| 20260504031122 | 69 | 270 | 0.0 | 0.0 | 0.00 | 0.00 | 0.00 | 57 | 1007.6 |
| 20260504030122 | 71 | 270 | 0.0 | 0.0 | 0.00 | 0.00 | 0.00 | 55 | 1007.7 |
| 20260504025122 | 71 | 270 | 0.0 | 0.0 | 0.00 | 0.00 | 0.00 | 54 | 1007.7 |
| 20260504024122 | 72 | 23 | 0.0 | 0.0 | 0.00 | 0.00 | 0.00 | 54 | 1007.8 |
| 20260504023143 | 73 | 270 | 0.0 | 0.0 | 0.00 | 0.00 | 0.00 | 52 | 1007.7 |
| 20260504022122 | 75 | 270 | 0.0 | 0.0 | 0.00 | 0.00 | 0.00 | 49 | 1007.9 |
| 20260504021123 | 77 | 315 | 0.0 | 0.0 | 0.00 | 0.00 | 0.00 | 47 | 1008.0 |
| 20260504020122 | 79 | 293 | 0.0 | 0.0 | 0.00 | 0.00 | 0.00 | 45 | 1008.0 |
| 20260504015122 | 77 | 315 | 0.0 | 0.0 | 0.00 | 0.00 | 0.00 | 47 | 1008.0 |
| 20260504014122 | 77 | 302 | 0.0 | 3.0 | 0.00 | 0.00 | 0.00 | 47 | 1008.2 |
| 20260504013122 | 79 | 270 | 0.0 | 0.0 | 0.00 | 0.00 | 0.00 | 46 | 1008.4 |
| 20260504012122 | 78 | 323 | 0.0 | 4.0 | 0.00 | 0.00 | 0.00 | 47 | 1008.5 |
| 20260504011122 | 79 | 306 | 0.0 | 5.0 | 0.00 | 0.00 | 0.00 | 46 | 1008.7 |
| 20260504010143 | 80 | 337 | 0.0 | 2.0 | 0.00 | 0.00 | 0.00 | 43 | 1008.7 |
| 20260504005122 | 80 | 224 | 1.0 | 11.0 | 0.00 | 0.00 | 0.00 | 39 | 1008.7 |
| 20260504004123 | 81 | 193 | 0.0 | 4.0 | 0.00 | 0.00 | 0.00 | 39 | 1008.9 |
| 20260504003123 | 80 | 206 | 1.0 | 13.0 | 0.00 | 0.00 | 0.00 | 39 | 1009.0 |
| 20260504002122 | 83 | 23 | 0.0 | 3.0 | 0.00 | 0.00 | 0.00 | 41 | 1009.2 |
| 20260504001122 | 82 | 292 | 0.0 | 5.0 | 0.00 | 0.00 | 0.00 | 41 | 1009.2 |
| 20260504000122 | 80 | 244 | 3.0 | 14.0 | 0.00 | 0.00 | 0.00 | 42 | 1009.6 |
| 20260503235122 | 81 | 266 | 2.0 | 10.0 | 0.00 | 0.00 | 0.00 | 42 | 1009.6 |
| 20260503234122 | 81 | 279 | 1.0 | 10.0 | 0.00 | 0.00 | 0.00 | 43 | 1009.7 |
| 20260503233143 | 80 | 318 | 1.0 | 9.0 | 0.00 | 0.00 | 0.00 | 46 | 1009.8 |
| 20260503232122 | 78 | 270 | 0.0 | 7.0 | 0.00 | 0.00 | 0.00 | 49 | 1010.0 |
| 20260503231122 | 78 | 286 | 1.0 | 9.0 | 0.00 | 0.00 | 0.00 | 49 | 1010.0 |
| 20260503230122 | 79 | 301 | 0.0 | 4.0 | 0.00 | 0.00 | 0.00 | 46 | 1010.2 |
| 20260503225122 | 81 | 298 | 0.0 | 7.0 | 0.00 | 0.00 | 0.00 | 44 | 1010.2 |
| 20260503224122 | 78 | 326 | 2.0 | 9.0 | 0.00 | 0.00 | 0.00 | 47 | 1010.4 |
| 20260503223122 | 76 | 305 | 2.0 | 12.0 | 0.00 | 0.00 | 0.00 | 48 | 1010.6 |
| 20260503222122 | 78 | 315 | 1.0 | 9.0 | 0.00 | 0.00 | 0.00 | 48 | 1010.7 |
| 20260503221123 | 78 | 260 | 2.0 | 13.0 | 0.00 | 0.00 | 0.00 | 48 | 1010.9 |
| 20260503220122 | 77 | 270 | 0.0 | 9.0 | 0.00 | 0.00 | 0.00 | 48 | 1011.1 |
| 20260503215122 | 77 | 272 | 2.0 | 10.0 | 0.00 | 0.00 | 0.00 | 48 | 1011.1 |
| 20260503214122 | 77 | 282 | 5.0 | 13.0 | 0.00 | 0.00 | 0.00 | 48 | 1011.2 |
| 20260503213124 | 79 | 302 | 2.0 | 9.0 | 0.00 | 0.00 | 0.00 | 47 | 1011.2 |
| 20260503212122 | 77 | 259 | 4.0 | 15.0 | 0.00 | 0.00 | 0.00 | 47 | 1011.5 |
| 20260503211122 | 77 | 292 | 3.0 | 13.0 | 0.00 | 0.00 | 0.00 | 48 | 1011.5 |
| 20260503210122 | 77 | 311 | 1.0 | 9.0 | 0.00 | 0.00 | 0.00 | 50 | 1011.7 |
| 20260503205122 | 77 | 297 | 4.0 | 13.0 | 0.00 | 0.00 | 0.00 | 49 | 1011.7 |
| 20260503204122 | 76 | 278 | 1.0 | 9.0 | 0.00 | 0.00 | 0.00 | 50 | 1011.8 |
| 20260503203144 | 76 | 301 | 3.0 | 10.0 | 0.00 | 0.00 | 0.00 | 49 | 1012.0 |
| 20260503202122 | 76 | 291 | 2.0 | 9.0 | 0.00 | 0.00 | 0.00 | 50 | 1012.1 |
| 20260503201122 | 80 | 275 | 3.0 | 8.0 | 0.00 | 0.00 | 0.00 | 47 | 1012.2 |
| 20260503200122 | 77 | 278 | 1.0 | 8.0 | 0.00 | 0.00 | 0.00 | 49 | 1012.5 |
| 20260503195122 | 75 | 280 | 0.0 | 8.0 | 0.00 | 0.00 | 0.00 | 52 | 1012.5 |
| 20260503194122 | 71 | 275 | 2.0 | 13.0 | 0.00 | 0.00 | 0.00 | 56 | 1012.6 |
| 20260503193122 | 72 | 270 | 2.0 | 13.0 | 0.00 | 0.00 | 0.00 | 57 | 1012.7 |
| 20260503192122 | 73 | 273 | 1.0 | 11.0 | 0.00 | 0.00 | 0.00 | 56 | 1012.8 |
| 20260503191122 | 75 | 270 | 0.0 | 0.0 | 0.00 | 0.00 | 0.00 | 55 | 1013.0 |
| 20260503190122 | 73 | 287 | 1.0 | 10.0 | 0.00 | 0.00 | 0.00 | 57 | 1013.0 |
| 20260503185122 | 73 | 270 | 0.0 | 0.0 | 0.00 | 0.00 | 0.00 | 57 | 1013.0 |
| 20260503184143 | 73 | 270 | 0.0 | 9.0 | 0.00 | 0.00 | 0.00 | 57 | 1013.1 |
| 20260503183122 | 73 | 306 | 0.0 | 5.0 | 0.00 | 0.00 | 0.00 | 58 | 1013.1 |
| 20260503182122 | 71 | 276 | 1.0 | 12.0 | 0.00 | 0.00 | 0.00 | 60 | 1013.1 |
| 20260503181143 | 73 | 276 | 3.0 | 10.0 | 0.00 | 0.00 | 0.00 | 58 | 1013.1 |
| 20260503180122 | 72 | 271 | 4.0 | 12.0 | 0.00 | 0.00 | 0.00 | 57 | 1013.2 |
| 20260503175122 | 73 | 276 | 3.0 | 12.0 | 0.00 | 0.00 | 0.00 | 54 | 1013.2 |
| 20260503174123 | 76 | 292 | 1.0 | 6.0 | 0.00 | 0.00 | 0.00 | 50 | 1013.2 |
| 20260503173123 | 72 | 290 | 1.0 | 8.0 | 0.00 | 0.00 | 0.00 | 54 | 1013.2 |
| 20260503172122 | 74 | 279 | 2.0 | 8.0 | 0.00 | 0.00 | 0.00 | 54 | 1013.4 |
| 20260503171122 | 73 | 289 | 0.0 | 6.0 | 0.00 | 0.00 | 0.00 | 56 | 1013.5 |
| 20260503170122 | 72 | 277 | 1.0 | 8.0 | 0.00 | 0.00 | 0.00 | 56 | 1013.6 |
| 20260503160122 | 76 | 23 | 0.0 | 2.0 | 0.00 | 0.00 | 0.00 | 52 | 1014.0 |
| 20260503150122 | 63 | 338 | 0.0 | 0.0 | 0.00 | 0.00 | 0.00 | 71 | 1014.1 |
| 20260503140122 | 55 | 225 | 0.0 | 0.0 | 0.00 | 0.00 | 0.00 | 90 | 1014.0 |
| 20260503131122 | 50 | 113 | 0.0 | 0.0 | 0.00 | 0.00 | 0.00 | 96 | 1013.7 |
| 20260503130122 | 50 | 270 | 0.0 | 0.0 | 0.00 | 0.00 | 0.00 | 96 | 1013.7 |